Location: State Camp
(41.2367°N, 77.7828°W)
Time: 10:53:46
(UTC-05:00)

Hubble Space Telescope - Visible Passes

Search period start: 20 February 2017 00:00
Search period end: 02 March 2017 00:00
Orbit: 538 x 542 km, 28.5° (Epoch: 19 February)

Date Brightness Start Highest point End Pass type
(mag) Time Alt. Az. Time Alt. Az. Time Alt. Az.
26 Feb 3.2 19:10:30 10° S 19:11:26 11° SSE 19:12:22 10° SSE visible
27 Feb 3.1 18:59:47 10° SSW 19:01:19 12° S 19:02:52 10° SSE visible
28 Feb 3.1 18:49:22 10° SSW 18:51:13 13° S 18:53:04 10° SSE visible
01 Mar 3.1 18:39:04 10° SSW 18:41:07 13° S 18:43:09 10° SE visible
01 Mar 3.5 20:19:56 10° SSW 20:20:17 11° SSW 20:20:17 11° SSW visible
